星链-35435(STARLINK-35435)

导读

STARLINK-35435是美国SpaceX星链项目的卫星,于2025年11月15日发射升空。星链旨在构建全球卫星互联网星座,为全球提供高速低延迟网络服务。该卫星入轨后,将进一步扩充星链星座规模,提升全球网络覆盖能力,推动卫星互联网技术发展与全球互联进程。

Basic Information
目录编号:
66464
目录名称:
STARLINK-35435
国际标识:
2025-262J
轨道中心:
EARTH
卫星名称:
星链-35435
卫星全名:
星链-35435(STARLINK-35435)
卫星状态:
在轨 (已飞行210 天)
发射日期:
2025-11-15 UTC
国别 :
美国 (US)
星等 :
--
Orbit Information
数据来源 国际轨道数据 AOE轨道数据
星历时间 2026-06-13T12:05:00+0800
8小时前
查看轨道信息
2026-06-13T00:00:00+0800
20小时前
查看轨道信息
半长轴 6861.099km 6861.186km
偏心率 0.0001044 0.0000137
轨道倾角 42.999° 43.001°
近地点辐角 264.571° 359.709°
升交点赤经 116.535° 119.381°
平近点角 95.502° 108.312°
近地点 482.245km 482.955km
远地点 483.679km 483.143km
周期 94.265分钟 94.267分钟
每日圈数 15.276091 15.275803
Detailed Information
固有亮度:
5
最大亮度:
2.5
卫星平台:
Starlink V1.0
覆盖范围:
全球
运营商:
太空探索技术公司
运营商所在国:
美国
制造商(研发单位):
太空探索技术公司
制造商所在国:
美国
使用方式:
暂无
Satellite Introduction
Starlink 计划是 SpaceX 推出的全球卫星互联网项目,通过发射低轨道卫星,为全球尤其是偏远地区提供高速、低延迟的互联网服务。自 2019 年起,Starlink 已部署数千颗卫星,旨在缩小全球数字鸿沟,推动互联网普及。该项目还为军事、航空等行业提供通信支持,带来广泛经济效益。
2D Orbit Map
3D Orbit Map
Orbit Altitude Analysis Chart
Orbit Inclination Analysis Chart
Orbit Comprehensive Analysis Chart
View Comprehensive Chart